Погода в Индиге

Поиск расширенной информации на нашем сайте:

Полезная информация:

Новости сайта



02.01.2020
Опубликован Долгосрочный прогноз погоды по городам России и ближнего зарубежья на январь 2020 года.
Карты: Прогноз на январь и февраль 2020 года, Сравнение прогнозируемой аномалии приземной температуры воздуха на январь 2020 года по разным моделям.




Погода в Индиге - сегодня

Время (UTC), дата Ветер
(°,м/с) 
Видим.   Явления Облачность Т
(°С)
Тd
(°С)
f(%) Тe
(°С)
Pmin
(гПа)
dP
(гПа)
Po
(мм)
O2
(г/м3)
Тmin Tmax R s Состояние
почвы
00 29.11.20 210 (ЮЗ) 11-14{15}  4000 м  дымка  10/10 300 м 
[St]
-9.1 -9.8 95 -16  1034.6  -0.4  776  324           
03 29.11.20 220 (ЮЗ) 12-16{16}  4000 м  дымка  10/10 300 м 
[St]
-9.8 -10.6 94 -18  1033.6  -1  775  325  -9.8      равномерный
мокрый или
старый снег
100% 
06 29.11.20 230 (ЮЗ) 13-16{17}  10 км    10/10 300 м 
[St]
-9.4 -10.6 91 -18  1033  -0.6  774  324  -10.4         
09 29.11.20 230 (ЮЗ) 14-17{17}  20000 м    9/4 600 м средняя 
[Sc|Ac As]
-7.8 -9.6 87 -16  1032  -1  774  322           
12 29.11.20 230 (ЮЗ) 12-16{18}  20000 м    9/9 600 м 
[Sc]
-6.2 -7.7 89 -13  1031.7  -0.3  773  320           
15 29.11.20 240 (ЮЗ) 13-17{19}  20000 м    10/10 600 м 
[Sc]
-5.6 -7.4 87 -13  1031.2  -0.5  773  319    -5.4       
18 29.11.20 240 (ЮЗ) 13-16{18}  10 км    10/10 600 м 
[Sc]
-5.3 -6.3 93 -12  1030.6  -0.6  773  318           
21 29.11.20 230 (ЮЗ) 13-17{19}  10 км    10/10 600 м 
[Sc]
-5.8 -6.5 95 -13  1030.1  -0.5  772  319           
00 30.11.20 230 (ЮЗ) 12-16{18}  4000 м  дымка  10/10 300 м 
[St]
-5.3 -6 95 -12  1030.2  0.1  772  318           
03 30.11.20 230 (ЮЗ) 13-16{16}  10 км    10/10 300 м 
[St]
-4 -4.9 93 -11  1029.2  -1  772  316  -5.9      равномерный
мокрый или
старый снег
100% 
06 30.11.20 230 (ЮЗ) 13-16{18}  10 км    10/10 300 м 
[St]
-3.1 -4.1 93 -10  1028.3  -0.9  771  315           
09 30.11.20 230 (ЮЗ) 14-17{18}  10 км    10/10 300 м 
[St]
-2.8 -3.5 95 -9  1027.9  -0.4  771  314           
12 30.11.20 240 (ЮЗ) 13-16{17}  10 км    10/10 300 м 
[St]
-2.7 -3.4 95 -9  1027.9  771  314           
15 30.11.20 230 (ЮЗ) 12-15{16}  10 км    10/10 300 м 
[St]
-2.5 -3.1 96 -9  1026.6  -1.3  770  313    -2.3       
18 30.11.20 240 (ЮЗ) 14-17{18}  10 км    10/10 300 м 
[St]
-2.3 -2.9 96 -9  1025.6  -1  769  313           
21 30.11.20 220 (ЮЗ) 13-17{18}  10 км    8/8 300 м 
[St]
-2.7 -3.4 95 -9  1024.2  -1.4  768  313           
00 01.12.20 220 (ЮЗ) 12-17{21}  10 км    10/10 300 м 
[St]
-1.8 -2.9 92 -8  1022.5  -1.7  767  311           
03 01.12.20 220 (ЮЗ) 11-14{19}  10 км    10/10 300 м 
[St]
-1.5 -2.6 92 -7  1021.4  -1.1  766  311  -2.8      равномерный
мокрый или
старый снег
100% 
06 01.12.20 220 (ЮЗ) 13-16{18}  10 км    10/10 300 м 
[St]
-0.6 -1.8 92 -6  1019.4  -2  764  309           
09 01.12.20 220 (ЮЗ) 16-19{19}  2000 м  дымка  9/9 300 м 
[St]
-0.1 -1.2 92 -6  1018  -1.4  763  308           
12 01.12.20 220 (ЮЗ) 14-17{20}  2000 м  дымка  10/10 300 м 
[St]
-0.8 -1.5 95 -7  1017.2  -0.8  763  308           
15 01.12.20 220 (ЮЗ) 15-20{21}  10 км    10/10 600 м 
[Sc]
-0.5 -2 90 -7  1016  -1.2  762  308    -0.1       
21 01.12.20 230 (ЮЗ) 14-17{20}  1000 м  слаб. снег  10/0 средняя 
[As op]
-1.4 -2.2 94 -8  1015.5  0.1  761  309           
00 02.12.20 230 (ЮЗ) 13-16{19}  10 км  позёмок{снег}  9/9 600 м 
[Sc]
-0.9 -2.5 89 -7  1016.2  0.7  762  308           
03 02.12.20 240 (ЮЗ) 13-17{17}  10 км  позёмок  10/10 300 м 
[St]
-1.1 -1.8 95 -7  1016.4  0.2  762  308  -1.4    0.4  неравномерный
мокрый или
старый снег
100% 
Время (UTC), дата Ветер
(°,м/с) 
Видим.   Явления Облачность Т
(°С)
Тd
(°С)
f(%) Тe
(°С)
Pmin
(гПа)
dP
(гПа)
Po
(мм)
O2
(г/м3)
Тmin Tmax R s Состояние
почвы

Для получения пояснительной информации подведите курсор к названию столбца.

ПОГОДА в Индиге - архив

Всё, что Вы хотите узнать о погоде в Индиге - удобно и подробно!

Выберите нужную дату (начиная с 1 января 2019* года) и нажмите кнопку "Найти".
Будут отображены архивные сводки погоды по пункту Индига, начиная с указанной даты.


Отображать данные в формате CSV (для использования в таблицах Excel)


Внимание! Наш архив погоды предназначен исключительно для личного некоммерческого использования в познавательных целях. Если Вам необходимы официальные справки о состоянии погоды (для производственных, юридических, коммерческих и т.п. целей), обращайтесь в органы Росгидромета.

*Примечание: данная дата относится к архиву по метеостанциям СССР (Россия, СНГ, Балтия).
Архив по метеостанциям Зарубежной Европы и Азии (кроме Китая) хранится 10 дней, по другим регионам земного шара (Китай, Африка, Америка, Австралия, Океания) - 1 день.

Индига - район местоположения метеостанции


Название, широта, долгота, высота метеостанции:
Индига 67.7°ш. 48.7°д. 4 м над ур. моря [Российская Федерация]

Дополнительная информация

В oтличие oт бoльшинства пoгoдных сайтoв мы публикуем пoдрoбную метеoинфoрмацию в детальнoм прoфессиoнальнoм фoрмате.

Характеристики температуры и влажнoсти вoздуха измеряются на высoте 2 м в тени вдали oт зданий и деревьев.
Скoрoсть ветра измеряется на высoте 10 м (на урoвне рoста челoвека скoрoсть ветра ниже в 1.5-2 раза). Если метеoстанция нахoдится в гoрoде или в лесу, тo скoрoсть ветра занижена на 2-4 м/с пo сравнению с oткрытым местoм. Скoрoсть ветра над акватoриями крупных рек и oзёр, а также на вершинах хoлмoв на 2-5 м/с выше, чем в oбычных услoвиях.
Атмoсфернoе давление в разных тoчках местнoсти мoжет значительнo oтличаться oт давления на метеoстанции, в зависимoсти oт услoвий рельефа (при пoдъёме на 10 м давление пoнижается примернo на 1 мм рт.ст.).